Erie, PA

7:46 AM EDT on September 26, 2017 (GMT -0400)
Erie International

Weather History for KERI - July, 2012

Change the Weather History Date:

Monday, July 9, 2012

  Actual Average Record
Temperature  
Mean Temperature 71 °F 72 °F  
Max Temperature 79 °F 80 °F 98 °F (1936)
Min Temperature 63 °F 63 °F 44 °F (1963)
Degree Days  
Heating Degree Days 0 0  
Month to date heating degree days 0 2  
Since 1 June heating degree days 43 63  
Since 1 July heating degree days 0 2  
Cooling Degree Days 6 7  
Month to date cooling degree days 108 61  
Year to date cooling degree days 387 223  
Since 1 June cooling degree days 292 184  
Growing Degree Days 22 (Base 50)    
Moisture  
Dew Point 57 °F    
Average Humidity 55    
Maximum Humidity 73    
Minimum Humidity 36    
Precipitation  
Precipitation 0.00 in 0.11 in 1.74 in (1965)
Month to date precipitation 0.79 0.97  
Year to date precipitation 15.89 19.79  
Snow  
Snow 0.00 in 0.00 in - ()
Month to date snowfall 0.0 0.0  
Since 1 June snowfall 0.0 0.0  
Since 1 July snowfall 0.0 0.0  
Snow Depth 0.00 in    
Sea Level Pressure  
Sea Level Pressure 30.01 in    
Wind  
Wind Speed 8 mph (NNE)    
Max Wind Speed 14 mph    
Max Gust Speed 20 mph    
Visibility 10 miles    
Events      
T = Trace of Precipitation, MM = Missing Value Source: NWS Daily Summary

Daily Weather History Graph

Daily Weather History Graph

Search for Another Location

Airport or City:

Trip Planner

Search our weather history database for the weather conditions in past years. The results will help you decide how hot, cold, wet, or windy it might be!

Date:

Astronomy

Jul. 09, 2012 Rise Set
Actual Time 5:53 AM EDT 8:57 PM EDT
Civil Twilight 5:20 AM EDT 9:31 PM EDT
Nautical Twilight 4:36 AM EDT 10:14 PM EDT
Astronomical Twilight 3:45 AM EDT 11:05 PM EDT
Moon No Moon Rise 12:27 PM EDT (7/9)
Length of Visible Light 16h 11m
Length of Day
15h 03m
Waning Gibbous, 64% of the Moon is Illuminated
Jul 9
Waning Gibbous
Jul 10
Last Quarter
Jul 19
New
Jul 26
First Quarter
Aug 1
Full

Hourly Weather History & Observations

Time (EDT) Temp. Dew Point Humidity Pressure Visibility Wind Dir Wind Speed Gust Speed Precip Events Conditions
12:51 AM 73.9 °F 59.0 °F 59% 29.97 in 10.0 mi NNE 6.9 mph - N/A   Clear
1:51 AM 72.0 °F 55.9 °F 57% 29.98 in 10.0 mi NNE 10.4 mph - N/A   Clear
2:51 AM 70.0 °F 57.9 °F 65% 29.98 in 10.0 mi NE 6.9 mph - N/A   Clear
3:51 AM 69.1 °F 59.0 °F 70% 29.98 in 10.0 mi NNE 11.5 mph - N/A   Partly Cloudy
4:51 AM 68.0 °F 59.0 °F 73% 30.00 in 10.0 mi NNE 10.4 mph - N/A   Clear
5:51 AM 66.9 °F 57.9 °F 73% 30.01 in 10.0 mi NNE 9.2 mph - N/A   Clear
6:51 AM 68.0 °F 59.0 °F 73% 30.02 in 10.0 mi NE 5.8 mph - N/A   Clear
7:51 AM 71.6 °F 60.8 °F 69% 30.04 in 10.0 mi ENE 8.1 mph - N/A   Clear
8:51 AM 73.0 °F 60.1 °F 64% 30.03 in 10.0 mi ENE 10.4 mph - N/A   Partly Cloudy
9:51 AM 73.9 °F 57.9 °F 57% 30.04 in 10.0 mi NE 10.4 mph - N/A   Clear
10:51 AM 75.9 °F 57.0 °F 52% 30.04 in 10.0 mi NE 9.2 mph - N/A   Clear
11:51 AM 78.1 °F 54.0 °F 43% 30.04 in 10.0 mi North 10.4 mph - N/A   Clear
12:51 PM 78.1 °F 55.9 °F 46% 30.04 in 10.0 mi North 12.7 mph - N/A   Clear
1:51 PM 77.0 °F 54.0 °F 45% 30.04 in 10.0 mi North 12.7 mph 17.3 mph N/A   Clear
2:51 PM 78.1 °F 54.0 °F 43% 30.02 in 10.0 mi North 10.4 mph - N/A   Clear
3:51 PM 78.1 °F 57.0 °F 48% 30.02 in 10.0 mi North 10.4 mph - N/A   Clear
4:51 PM 78.1 °F 55.0 °F 45% 30.02 in 10.0 mi North 8.1 mph - N/A   Clear
5:51 PM 77.0 °F 55.0 °F 47% 30.01 in 10.0 mi North 8.1 mph - N/A   Clear
6:51 PM 77.0 °F 48.9 °F 37% 30.00 in 10.0 mi North 4.6 mph - N/A   Clear
7:51 PM 75.0 °F 55.0 °F 50% 30.00 in 10.0 mi NNW 4.6 mph - N/A   Clear
8:51 PM 72.0 °F 57.0 °F 59% 30.00 in 10.0 mi Calm Calm - N/A   Clear
9:51 PM 69.1 °F 57.9 °F 68% 30.01 in 10.0 mi Calm Calm - N/A   Mostly Cloudy
10:51 PM 66.0 °F 57.0 °F 73% 30.02 in 10.0 mi South 4.6 mph - N/A   Scattered Clouds
11:51 PM 64.9 °F 55.9 °F 73% 30.02 in 10.0 mi Calm Calm - N/A   Partly Cloudy